Location: Unspecified
(0.0000°N, 0.0000°E)
Time: 18:50:00
(UTC+00:00)

Altair - Visible Passes

Search period start: 17 July 2024 00:00
Search period end: 27 July 2024 00:00
Orbit: 1502 x 1681 km, 47.2° (Epoch: 17 July)

Date Brightness Start Highest point End Pass type
(mag) Time Alt. Az. Time Alt. Az. Time Alt. Az.
17 Jul 9.7 01:29:32 10° NNE 01:33:09 13° NE 01:36:48 10° ENE visible
17 Jul 7.6 03:28:42 10° NNW 03:38:06 73° NE 03:47:56 10° SE visible
17 Jul 8.4 05:35:43 10° W 05:42:56 24° SW 05:50:25 10° S visible
18 Jul9.801:11:35ENE01:11:35ENE01:04:36NNEvisible
18 Jul 7.7 03:10:08 48° N 03:12:55 66° NE 03:22:36 10° SE visible
18 Jul 8.3 05:10:01 10° W 05:17:39 27° SW 05:25:34 10° S visible
19 Jul 8.1 02:50:16 47° E 02:50:16 47° E 02:57:15 10° SE visible
19 Jul 8.1 04:48:32 23° W 04:52:23 30° SW 05:00:40 10° S visible
20 Jul 9.1 02:28:52 22° ESE 02:28:52 22° ESE 02:31:51 10° SE visible
20 Jul 8.0 04:27:03 34° SW 04:27:07 34° SW 04:35:44 10° SSE visible
21 Jul 8.3 04:04:56 31° SSW 04:04:56 31° SSW 04:10:45 10° SSE visible
22 Jul 8.8 03:42:25 22° S 03:42:25 22° S 03:45:44 10° SSE visible
23 Jul 9.3 03:19:37 14° SSE 03:19:37 14° SSE 03:20:41 10° SSE visible
